Location: Breitenfeld
(46.8500°N, 15.6333°E)
Time: 11:29:51
(UTC+00:00)

Transit 4B - Pass Details

Date: 07 June 2022
Orbit: 948 x 1097 km, 32.4° (Epoch: 01 July)

Event Time Altitude Azimuth Distance (km) Brightness Sun altitude
Rises 19:40:55 0° 203° (SSW) 3,890 11.4 -7.6°
Reaches altitude 10° 19:45:47 10° 175° (S) 2,927 10.5 -8.1°
Maximum altitude 19:48:19 12° 154° (SSE) 2,764 10.3 -8.4°
Enters shadow 19:50:35 10° 135° (SE) 2,881 10.3 -8.7°
